Overview Statistics Trail Chart Weather Telemetry Raw packets
 

This is the latest recevied weather packets stored in our database for station/object KD7AWQ. If no packets are shown the sender has not sent any weather packets the latest 10 day(s).

<< 82 83 84 85 86 87 88 >>
Time Temp. Humidity Pressure Rain* Wind** Luminosity Snow
1787836341 26.11° C 27% 1189.3 hPa 0 mm - 22 W/m² -
1787836037 26.11° C 27% 1189.5 hPa 0 mm - 17 W/m² -
1787835733 26.67° C 26% 1189.5 hPa 0 mm - 12 W/m² -
1787835427 27.78° C 25% 1189.6 hPa 0 mm - 7 W/m² -
1787835122 27.78° C 25% 1189.3 hPa 0 mm - 4 W/m² -
1787834821 28.33° C 24% 1189.1 hPa 0 mm - 2 W/m² -
1787834516 28.33° C 24% 1189.2 hPa 0 mm - 1 W/m² -
1787834212 27.78° C 24% 1189.2 hPa 0 mm - 0 W/m² -
1787833907 27.78° C 25% 1189.2 hPa 0 mm - 0 W/m² -
1787833602 27.22° C 25% 1189 hPa 0 mm - 0 W/m² -
1787833298 27.22° C 25% 1188.9 hPa 0 mm - 0 W/m² -
1787832993 27.22° C 26% 1188.9 hPa 0 mm - 0 W/m² -
1787832689 27.78° C 25% 1188.8 hPa 0 mm - 0 W/m² -
1787832388 28.33° C 24% 1188.9 hPa 0 mm - 0 W/m² -
1787832082 28.89° C 23% 1188.8 hPa 0 mm - 0 W/m² -
1787831781 28.89° C 23% 1189 hPa 0 mm - 0 W/m² -
1787831481 28.89° C 23% 1188.8 hPa 0 mm - 0 W/m² -
1787831179 29.44° C 22% 1188.8 hPa 0 mm - 0 W/m² -
1787830876 29.44° C 22% 1189 hPa 0 mm - 0 W/m² -
1787830575 29.44° C 22% 1188.7 hPa 0 mm - 0 W/m² -
1787830274 29.44° C 22% 1188.9 hPa 0 mm - 0 W/m² -
1787829969 29.44° C 22% 1188.9 hPa 0 mm - 0 W/m² -
1787829669 29.44° C 22% 1188.9 hPa 0 mm - 0 W/m² -
1787829364 29.44° C 22% 1188.8 hPa 0 mm - 0 W/m² -
1787829060 30° C 21% 1188.6 hPa 0 mm - 0 W/m² -

* Rain latest hour (hover to see other rain measurements)
** Current wind speed in m/s (hover to see current wind gust speed)